Location: Hopkins Observatory
(42.6965°N, 73.1843°W)
Time: 17:54:18
(UTC-04:00)

UOSAT-12 - Visible Passes

Search period start: 27 May 2015 00:00
Search period end: 06 June 2015 00:00
Orbit: 597 x 658 km, 64.6° (Epoch: 26 May)

Date Brightness Start Highest point End Pass type
(mag) Time Alt. Az. Time Alt. Az. Time Alt. Az.
27 May 9.8 03:29:26 10° SE 03:30:55 12° ESE 03:32:40 10° E visible
28 May 8.9 03:46:56 10° SSE 03:50:44 25° ESE 03:54:38 10° ENE visible
29 May 7.7 04:06:23 12° SSW 04:10:39 54° ESE 04:15:16 10° NE visible
30 May 9.5 02:48:51 10° SE 02:51:05 14° ESE 02:53:39 10° ENE visible
30 May 7.3 04:26:10 11° SW 04:30:43 72° NW 04:35:27 10° NNE visible
31 May 8.5 03:08:35 19° SSE 03:10:55 30° ESE 03:15:04 10° NE visible
01 Jun 7.4 03:28:15 25° SSW 03:30:52 65° ESE 03:35:34 10° NE visible
02 Jun 9.1 02:10:33 16° ESE 02:11:15 17° ESE 02:14:22 10° ENE visible
02 Jun 7.4 03:47:51 20° SW 03:50:59 61° NW 03:55:41 10° NNE visible
03 Jun 8.1 02:30:07 32° SE 02:31:07 36° ESE 02:35:27 10° NE visible
03 Jun 8.4 04:07:25 12° WSW 04:11:19 31° NW 04:15:31 10° NNE visible
04 Jun 7.1 02:49:37 43° SSW 02:51:06 78° ESE 02:55:50 10° NE visible
04 Jun 9.2 04:28:30 10° W 04:31:50 18° NW 04:35:05 10° N visible
05 Jun 8.9 01:31:47 20° ESE 01:31:47 20° ESE 01:34:57 10° ENE visible
05 Jun 7.7 03:09:05 28° WSW 03:11:16 51° NW 03:15:53 10° NNE visible
